Time,TemperatureF,DewpointF,PressureIn,WindDirection,WindDirectionDegrees,WindSpeedMPH,WindSpeedGustMPH,Humidity,HourlyPrecipIn,Conditions,Clouds,dailyrainin,SoftwareType,DateUTC
2013-04-06 00:00:00,61.4,55.2,29.98,North,0,0.0,0.0,80,0.00,,,0.05,WUHU216HW,2013-04-06 04:00:00,
2013-04-06 00:05:00,61.2,55.4,29.98,North,0,0.0,0.0,81,0.00,,,0.00,WUHU216HW,2013-04-06 04:05:00,
2013-04-06 00:10:00,60.8,55.1,29.98,North,0,0.0,0.0,81,0.00,,,0.00,WUHU216HW,2013-04-06 04:10:00,
2013-04-06 00:15:00,60.8,55.1,29.98,North,0,0.0,0.0,81,0.00,,,0.00,WUHU216HW,2013-04-06 04:15:00,
2013-04-06 00:20:00,60.7,54.9,29.98,North,0,0.0,0.0,81,0.00,,,0.00,WUHU216HW,2013-04-06 04:20:00,
2013-04-06 00:25:00,60.7,55.2,29.98,North,0,0.0,0.0,82,0.00,,,0.00,WUHU216HW,2013-04-06 04:25:00,
2013-04-06 00:30:00,60.7,55.2,29.99,North,0,0.0,0.0,82,0.00,,,0.00,WUHU216HW,2013-04-06 04:30:00,
2013-04-06 00:35:00,60.5,55.0,29.99,North,0,0.0,0.0,82,0.00,,,0.00,WUHU216HW,2013-04-06 04:35:00,
2013-04-06 00:40:00,60.3,54.8,29.99,North,0,0.0,0.0,82,0.00,,,0.00,WUHU216HW,2013-04-06 04:40:00,
2013-04-06 00:45:00,60.3,54.8,29.99,North,0,0.0,0.0,82,0.00,,,0.00,WUHU216HW,2013-04-06 04:45:00,
2013-04-06 00:50:00,60.5,55.0,29.99,North,0,0.0,0.0,82,0.00,,,0.00,WUHU216HW,2013-04-06 04:50:00,
2013-04-06 00:55:00,60.5,54.4,29.99,North,0,0.0,0.0,80,0.00,,,0.00,WUHU216HW,2013-04-06 04:55:00,
2013-04-06 01:00:00,60.3,54.6,29.99,North,0,0.0,0.0,81,0.00,,,0.00,WUHU216HW,2013-04-06 05:00:00,
2013-04-06 01:05:00,60.3,54.2,29.99,North,0,0.0,0.0,80,0.00,,,0.00,WUHU216HW,2013-04-06 05:05:00,
2013-04-06 01:10:00,60.1,54.0,30.00,North,0,0.0,0.0,80,0.00,,,0.00,WUHU216HW,2013-04-06 05:10:00,
2013-04-06 01:15:00,60.1,54.0,29.99,North,0,0.0,0.0,80,0.00,,,0.00,WUHU216HW,2013-04-06 05:15:00,
2013-04-06 01:20:00,60.1,54.0,29.99,North,0,0.0,0.0,80,0.00,,,0.00,WUHU216HW,2013-04-06 05:20:00,
2013-04-06 01:25:00,60.1,54.0,29.99,North,0,0.0,0.0,80,0.00,,,0.00,WUHU216HW,2013-04-06 05:25:00,
2013-04-06 01:30:00,60.3,54.2,29.99,North,0,0.0,0.0,80,0.00,,,0.00,WUHU216HW,2013-04-06 05:30:00,
2013-04-06 01:35:00,60.3,54.2,29.99,North,0,0.0,0.0,80,0.00,,,0.00,WUHU216HW,2013-04-06 05:35:00,
2013-04-06 01:40:00,60.3,54.2,29.99,North,0,0.0,0.0,80,0.00,,,0.00,WUHU216HW,2013-04-06 05:40:00,
2013-04-06 01:45:00,60.1,54.0,29.99,North,0,0.0,0.0,80,0.00,,,0.00,WUHU216HW,2013-04-06 05:45:00,
2013-04-06 01:50:00,60.1,54.0,29.99,North,0,0.0,0.0,80,0.00,,,0.00,WUHU216HW,2013-04-06 05:50:00,
2013-04-06 01:55:00,60.1,54.0,29.99,North,0,0.0,0.0,80,0.00,,,0.00,WUHU216HW,2013-04-06 05:55:00,
2013-04-06 02:00:00,60.1,54.0,29.99,North,0,0.0,0.0,80,0.00,,,0.00,WUHU216HW,2013-04-06 06:00:00,
2013-04-06 02:05:00,60.1,54.0,29.99,North,0,0.0,0.0,80,0.00,,,0.00,WUHU216HW,2013-04-06 06:05:00,
2013-04-06 02:10:00,59.9,53.8,29.99,North,0,0.0,0.0,80,0.00,,,0.00,WUHU216HW,2013-04-06 06:10:00,
2013-04-06 02:15:00,59.9,53.8,30.00,North,0,0.0,0.0,80,0.00,,,0.00,WUHU216HW,2013-04-06 06:15:00,
2013-04-06 02:20:00,59.9,53.8,29.99,North,0,0.0,0.0,80,0.00,,,0.00,WUHU216HW,2013-04-06 06:20:00,
2013-04-06 02:25:00,59.9,53.8,29.99,North,0,0.0,0.0,80,0.00,,,0.00,WUHU216HW,2013-04-06 06:25:00,
2013-04-06 02:30:00,59.9,53.5,29.99,North,0,0.0,0.0,79,0.00,,,0.00,WUHU216HW,2013-04-06 06:30:00,
2013-04-06 02:35:00,59.9,53.5,29.99,North,0,0.0,0.0,79,0.00,,,0.00,WUHU216HW,2013-04-06 06:35:00,
2013-04-06 02:40:00,59.9,53.5,29.99,North,0,0.0,0.0,79,0.00,,,0.00,WUHU216HW,2013-04-06 06:40:00,
2013-04-06 02:45:00,59.9,53.5,29.99,North,0,0.0,0.0,79,0.00,,,0.00,WUHU216HW,2013-04-06 06:45:00,
2013-04-06 02:50:00,59.9,53.5,29.99,North,0,0.0,0.0,79,0.00,,,0.00,WUHU216HW,2013-04-06 06:50:00,
2013-04-06 02:56:00,59.9,53.5,29.98,North,0,0.0,0.0,79,0.00,,,0.00,WUHU216HW,2013-04-06 06:56:00,
2013-04-06 03:01:00,59.9,53.5,29.98,North,0,0.0,0.0,79,0.00,,,0.00,WUHU216HW,2013-04-06 07:01:00,
2013-04-06 03:06:00,59.9,53.5,29.98,North,0,0.0,0.0,79,0.00,,,0.00,WUHU216HW,2013-04-06 07:06:00,
2013-04-06 03:11:00,59.9,53.5,29.98,North,0,0.0,0.0,79,0.00,,,0.00,WUHU216HW,2013-04-06 07:11:00,
2013-04-06 03:16:00,59.9,53.5,29.98,North,0,0.0,0.0,79,0.00,,,0.00,WUHU216HW,2013-04-06 07:16:00,
2013-04-06 03:21:00,60.1,53.6,29.98,North,0,0.0,0.0,79,0.00,,,0.00,WUHU216HW,2013-04-06 07:21:00,
2013-04-06 03:27:00,59.9,53.5,29.98,North,0,0.0,0.0,79,0.00,,,0.00,WUHU216HW,2013-04-06 07:27:00,
2013-04-06 03:32:00,59.9,53.5,29.98,North,0,0.0,0.0,79,0.00,,,0.00,WUHU216HW,2013-04-06 07:32:00,
2013-04-06 03:37:00,59.9,53.5,29.98,North,0,0.0,0.0,79,0.00,,,0.00,WUHU216HW,2013-04-06 07:37:00,
2013-04-06 03:42:00,59.9,53.5,29.98,North,0,0.0,0.0,79,0.00,,,0.00,WUHU216HW,2013-04-06 07:42:00,
2013-04-06 03:47:00,59.8,52.9,29.98,North,0,0.0,0.0,78,0.00,,,0.00,WUHU216HW,2013-04-06 07:47:00,
2013-04-06 03:52:00,59.8,52.9,29.98,North,0,0.0,0.0,78,0.00,,,0.00,WUHU216HW,2013-04-06 07:52:00,
2013-04-06 03:57:00,59.8,52.9,29.98,North,0,0.0,0.0,78,0.00,,,0.00,WUHU216HW,2013-04-06 07:57:00,
2013-04-06 04:02:00,59.8,52.9,29.98,North,0,0.0,0.0,78,0.00,,,0.00,WUHU216HW,2013-04-06 08:02:00,
2013-04-06 04:07:00,59.8,52.9,29.98,North,0,0.0,0.0,78,0.00,,,0.00,WUHU216HW,2013-04-06 08:07:00,
2013-04-06 04:12:00,59.6,52.7,29.98,North,0,0.0,0.0,78,0.00,,,0.00,WUHU216HW,2013-04-06 08:12:00,
2013-04-06 04:17:00,59.4,52.6,29.97,North,0,0.0,0.0,78,0.00,,,0.00,WUHU216HW,2013-04-06 08:17:00,
2013-04-06 04:22:00,59.4,52.6,29.97,North,0,0.0,0.0,78,0.00,,,0.00,WUHU216HW,2013-04-06 08:22:00,
2013-04-06 04:27:00,59.4,52.6,29.97,North,0,0.0,0.0,78,0.00,,,0.00,WUHU216HW,2013-04-06 08:27:00,
2013-04-06 04:32:00,59.4,52.6,29.98,North,0,0.0,0.0,78,0.00,,,0.00,WUHU216HW,2013-04-06 08:32:00,
2013-04-06 04:37:00,59.4,52.6,29.98,North,0,0.0,0.0,78,0.00,,,0.00,WUHU216HW,2013-04-06 08:37:00,
2013-04-06 04:42:00,59.2,52.4,29.98,North,0,0.0,0.0,78,0.00,,,0.00,WUHU216HW,2013-04-06 08:42:00,
2013-04-06 04:47:00,59.0,52.6,29.99,North,0,0.0,0.0,79,0.00,,,0.00,WUHU216HW,2013-04-06 08:47:00,
2013-04-06 04:52:00,59.0,52.6,29.98,North,0,0.0,0.0,79,0.00,,,0.00,WUHU216HW,2013-04-06 08:52:00,
2013-04-06 04:57:00,59.0,52.6,29.99,North,0,0.0,0.0,79,0.00,,,0.00,WUHU216HW,2013-04-06 08:57:00,
2013-04-06 05:02:00,58.9,52.4,29.99,North,0,0.0,0.0,79,0.00,,,0.00,WUHU216HW,2013-04-06 09:02:00,
2013-04-06 05:07:00,58.7,52.2,29.99,North,0,0.0,0.0,79,0.00,,,0.00,WUHU216HW,2013-04-06 09:07:00,
2013-04-06 05:12:00,58.5,52.0,29.99,North,0,0.0,0.0,79,0.00,,,0.00,WUHU216HW,2013-04-06 09:12:00,
2013-04-06 05:17:00,58.3,51.8,29.99,North,0,0.0,0.0,79,0.00,,,0.00,WUHU216HW,2013-04-06 09:17:00,
2013-04-06 05:22:00,58.3,51.8,29.98,North,0,0.0,0.0,79,0.00,,,0.00,WUHU216HW,2013-04-06 09:22:00,
2013-04-06 05:27:00,58.3,51.8,29.98,North,0,0.0,0.0,79,0.00,,,0.00,WUHU216HW,2013-04-06 09:27:00,
2013-04-06 05:32:00,58.3,51.8,29.98,North,0,0.0,0.0,79,0.00,,,0.00,WUHU216HW,2013-04-06 09:32:00,
2013-04-06 05:37:00,58.1,51.7,29.99,North,0,0.0,0.0,79,0.00,,,0.00,WUHU216HW,2013-04-06 09:37:00,
2013-04-06 05:42:00,58.1,51.7,29.99,North,0,0.0,0.0,79,0.00,,,0.00,WUHU216HW,2013-04-06 09:42:00,
2013-04-06 05:47:00,58.1,51.7,30.00,North,0,0.0,0.0,79,0.00,,,0.00,WUHU216HW,2013-04-06 09:47:00,
2013-04-06 05:52:00,58.0,51.5,30.00,North,0,0.0,0.0,79,0.00,,,0.00,WUHU216HW,2013-04-06 09:52:00,
2013-04-06 05:57:00,58.0,51.5,30.00,North,0,0.0,0.0,79,0.00,,,0.00,WUHU216HW,2013-04-06 09:57:00,
2013-04-06 06:02:00,58.0,51.5,30.00,North,0,0.0,0.0,79,0.00,,,0.00,WUHU216HW,2013-04-06 10:02:00,
2013-04-06 06:07:00,58.0,51.8,30.01,North,0,0.0,0.0,80,0.00,,,0.00,WUHU216HW,2013-04-06 10:07:00,
2013-04-06 06:12:00,57.8,51.7,30.01,North,0,0.0,0.0,80,0.00,,,0.00,WUHU216HW,2013-04-06 10:12:00,
2013-04-06 06:17:00,57.8,51.7,30.01,North,0,0.0,0.0,80,0.00,,,0.00,WUHU216HW,2013-04-06 10:17:00,
2013-04-06 06:22:00,57.8,51.7,30.01,North,0,0.0,0.0,80,0.00,,,0.00,WUHU216HW,2013-04-06 10:22:00,
2013-04-06 06:27:00,58.0,51.8,30.02,North,0,0.0,0.0,80,0.00,,,0.00,WUHU216HW,2013-04-06 10:27:00,
2013-04-06 06:32:00,57.8,51.7,30.02,North,0,0.0,0.0,80,0.00,,,0.00,WUHU216HW,2013-04-06 10:32:00,
2013-04-06 06:37:00,57.6,51.9,30.01,North,0,0.0,0.0,81,0.00,,,0.00,WUHU216HW,2013-04-06 10:37:00,
2013-04-06 06:42:00,57.6,51.9,30.01,North,0,0.0,0.0,81,0.00,,,0.00,WUHU216HW,2013-04-06 10:42:00,
2013-04-06 06:47:00,57.4,51.7,30.02,North,0,0.0,0.0,81,0.00,,,0.00,WUHU216HW,2013-04-06 10:47:00,
2013-04-06 06:52:00,57.4,51.7,30.03,North,0,0.0,0.0,81,0.00,,,0.00,WUHU216HW,2013-04-06 10:52:00,
2013-04-06 06:57:00,57.4,51.7,30.03,North,0,0.0,0.0,81,0.00,,,0.00,WUHU216HW,2013-04-06 10:57:00,
2013-04-06 07:02:00,57.4,51.7,30.03,North,0,0.0,0.0,81,0.00,,,0.00,WUHU216HW,2013-04-06 11:02:00,
2013-04-06 07:07:00,57.4,51.7,30.03,North,0,0.0,0.0,81,0.00,,,0.00,WUHU216HW,2013-04-06 11:07:00,
2013-04-06 07:12:00,57.2,51.5,30.03,North,0,0.0,0.0,81,0.00,,,0.00,WUHU216HW,2013-04-06 11:12:00,
2013-04-06 07:17:00,57.2,51.5,30.02,North,0,0.0,0.0,81,0.00,,,0.00,WUHU216HW,2013-04-06 11:17:00,
2013-04-06 07:22:00,57.2,51.5,30.02,North,0,0.0,0.0,81,0.00,,,0.00,WUHU216HW,2013-04-06 11:22:00,
2013-04-06 07:27:00,57.4,51.7,30.02,North,0,0.0,0.0,81,0.00,,,0.00,WUHU216HW,2013-04-06 11:27:00,
2013-04-06 07:32:00,57.4,51.7,30.02,North,0,0.0,0.0,81,0.00,,,0.00,WUHU216HW,2013-04-06 11:32:00,
2013-04-06 07:33:00,57.2,51.5,30.02,North,0,0.0,0.0,81,0.00,,,0.00,WUHU216HW,2013-04-06 11:33:00,
2013-04-06 07:38:00,57.4,51.7,30.02,North,0,0.0,0.0,81,0.00,,,0.00,WUHU216HW,2013-04-06 11:38:00,
2013-04-06 07:43:00,57.2,51.5,30.02,North,0,0.0,0.0,81,0.00,,,0.00,WUHU216HW,2013-04-06 11:43:00,
2013-04-06 07:48:00,57.4,51.7,30.02,North,0,0.0,0.0,81,0.00,,,0.00,WUHU216HW,2013-04-06 11:48:00,
2013-04-06 07:53:00,57.4,51.7,30.03,North,0,0.0,0.0,81,0.00,,,0.00,WUHU216HW,2013-04-06 11:53:00,
2013-04-06 07:58:00,57.2,51.5,30.03,North,0,0.0,0.0,81,0.00,,,0.00,WUHU216HW,2013-04-06 11:58:00,
2013-04-06 08:03:00,57.4,51.7,30.03,North,0,0.0,0.0,81,0.00,,,0.00,WUHU216HW,2013-04-06 12:03:00,
2013-04-06 08:08:00,57.4,51.9,30.03,North,0,0.0,0.0,82,0.00,,,0.00,WUHU216HW,2013-04-06 12:08:00,
2013-04-06 08:13:00,57.4,51.9,30.03,North,0,0.0,0.0,82,0.00,,,0.00,WUHU216HW,2013-04-06 12:13:00,
2013-04-06 08:18:00,57.6,52.1,30.03,North,0,0.0,0.0,82,0.00,,,0.00,WUHU216HW,2013-04-06 12:18:00,
2013-04-06 08:23:00,57.8,52.3,30.04,North,0,0.0,0.0,82,0.00,,,0.00,WUHU216HW,2013-04-06 12:23:00,
2013-04-06 08:28:00,58.0,52.5,30.04,North,0,0.0,0.0,82,0.00,,,0.00,WUHU216HW,2013-04-06 12:28:00,
2013-04-06 08:33:00,58.1,52.4,30.03,North,0,0.0,0.0,81,0.00,,,0.00,WUHU216HW,2013-04-06 12:33:00,
2013-04-06 08:38:00,58.3,52.6,30.03,North,0,0.0,0.0,81,0.00,,,0.00,WUHU216HW,2013-04-06 12:38:00,
2013-04-06 08:43:00,58.3,52.6,30.04,North,0,0.0,0.0,81,0.00,,,0.00,WUHU216HW,2013-04-06 12:43:00,
2013-04-06 08:48:00,58.7,52.9,30.04,North,0,0.0,0.0,81,0.00,,,0.00,WUHU216HW,2013-04-06 12:48:00,
2013-04-06 08:53:00,58.9,53.1,30.05,North,0,0.0,0.0,81,0.00,,,0.00,WUHU216HW,2013-04-06 12:53:00,
2013-04-06 08:58:00,59.0,53.3,30.05,North,0,0.0,0.0,81,0.00,,,0.00,WUHU216HW,2013-04-06 12:58:00,
2013-04-06 09:03:00,59.4,53.3,30.05,North,0,0.0,0.0,80,0.00,,,0.00,WUHU216HW,2013-04-06 13:03:00,
2013-04-06 09:08:00,59.8,53.6,30.05,North,0,0.0,0.0,80,0.00,,,0.00,WUHU216HW,2013-04-06 13:08:00,
2013-04-06 09:13:00,60.1,53.6,30.05,North,0,0.0,0.0,79,0.00,,,0.00,WUHU216HW,2013-04-06 13:13:00,
2013-04-06 09:18:00,60.5,54.0,30.05,North,0,0.0,0.0,79,0.00,,,0.00,WUHU216HW,2013-04-06 13:18:00,
2013-04-06 09:23:00,61.0,54.6,30.05,North,0,0.0,0.0,79,0.00,,,0.00,WUHU216HW,2013-04-06 13:23:00,
2013-04-06 09:28:00,61.4,54.5,30.05,North,0,0.0,0.0,78,0.00,,,0.00,WUHU216HW,2013-04-06 13:28:00,
2013-04-06 09:33:00,61.7,54.5,30.05,North,0,0.0,0.0,77,0.00,,,0.00,WUHU216HW,2013-04-06 13:33:00,
2013-04-06 09:38:00,61.9,54.3,30.05,North,0,0.0,0.0,76,0.00,,,0.00,WUHU216HW,2013-04-06 13:38:00,
2013-04-06 09:43:00,62.3,54.2,30.05,North,0,0.0,0.0,75,0.00,,,0.00,WUHU216HW,2013-04-06 13:43:00,
2013-04-06 09:48:00,62.5,54.4,30.05,North,0,0.0,0.0,75,0.00,,,0.00,WUHU216HW,2013-04-06 13:48:00,
2013-04-06 09:53:00,62.6,54.5,30.04,North,0,0.0,0.0,75,0.00,,,0.00,WUHU216HW,2013-04-06 13:53:00,
2013-04-06 09:58:00,62.8,55.1,30.04,North,0,0.0,0.0,76,0.00,,,0.00,WUHU216HW,2013-04-06 13:58:00,
2013-04-06 10:04:00,63.2,55.1,30.05,North,0,0.0,0.0,75,0.00,,,0.00,WUHU216HW,2013-04-06 14:04:00,
2013-04-06 10:09:00,63.5,55.1,30.05,North,0,0.0,0.0,74,0.00,,,0.00,WUHU216HW,2013-04-06 14:09:00,
2013-04-06 10:14:00,63.7,55.3,30.05,North,0,0.0,0.0,74,0.00,,,0.00,WUHU216HW,2013-04-06 14:14:00,
2013-04-06 10:19:00,64.1,55.6,30.05,North,0,0.0,0.0,74,0.00,,,0.00,WUHU216HW,2013-04-06 14:19:00,
2013-04-06 10:24:00,64.4,56.0,30.05,North,0,0.0,0.0,74,0.00,,,0.00,WUHU216HW,2013-04-06 14:24:00,
2013-04-06 10:29:00,64.8,55.6,30.06,North,0,0.0,0.0,72,0.00,,,0.00,WUHU216HW,2013-04-06 14:29:00,
2013-04-06 10:34:00,65.0,56.2,30.06,North,0,0.0,0.0,73,0.00,,,0.00,WUHU216HW,2013-04-06 14:34:00,
2013-04-06 10:39:00,65.3,56.4,30.06,North,0,0.0,0.0,73,0.00,,,0.00,WUHU216HW,2013-04-06 14:39:00,
2013-04-06 10:44:00,65.7,56.1,30.06,North,0,0.0,0.0,71,0.00,,,0.00,WUHU216HW,2013-04-06 14:44:00,
2013-04-06 10:49:00,66.1,56.3,30.06,North,0,0.0,0.0,71,0.00,,,0.00,WUHU216HW,2013-04-06 14:49:00,
2013-04-06 10:54:00,66.6,56.9,30.06,North,0,0.0,0.0,71,0.00,,,0.00,WUHU216HW,2013-04-06 14:54:00,
2013-04-06 10:59:00,67.0,57.2,30.06,North,0,0.0,0.0,71,0.00,,,0.00,WUHU216HW,2013-04-06 14:59:00,
2013-04-06 11:04:00,67.3,57.2,30.06,North,0,0.0,0.0,70,0.00,,,0.00,WUHU216HW,2013-04-06 15:04:00,
2013-04-06 11:09:00,67.7,57.6,30.07,North,0,0.0,0.0,70,0.00,,,0.00,WUHU216HW,2013-04-06 15:09:00,
2013-04-06 11:14:00,68.2,56.8,30.07,North,0,0.0,0.0,67,0.00,,,0.00,WUHU216HW,2013-04-06 15:14:00,
2013-04-06 11:19:00,68.8,58.1,30.07,North,0,0.0,0.0,69,0.00,,,0.00,WUHU216HW,2013-04-06 15:19:00,
2013-04-06 11:24:00,69.5,58.0,30.07,North,0,0.0,0.0,67,0.00,,,0.00,WUHU216HW,2013-04-06 15:24:00,
2013-04-06 11:29:00,70.2,58.2,30.07,North,0,0.0,0.0,66,0.00,,,0.00,WUHU216HW,2013-04-06 15:29:00,
2013-04-06 11:34:00,70.9,58.5,30.07,North,0,0.0,0.0,65,0.00,,,0.00,WUHU216HW,2013-04-06 15:34:00,
2013-04-06 11:39:00,71.5,59.0,30.08,North,0,0.0,0.0,65,0.00,,,0.00,WUHU216HW,2013-04-06 15:39:00,
2013-04-06 11:45:00,72.2,59.3,30.07,North,0,0.0,0.0,64,0.00,,,0.00,WUHU216HW,2013-04-06 15:45:00,
2013-04-06 11:50:00,72.5,59.7,30.07,North,0,0.0,0.0,64,0.00,,,0.00,WUHU216HW,2013-04-06 15:50:00,
2013-04-06 11:55:00,72.9,58.7,30.07,North,0,0.0,0.0,61,0.00,,,0.00,WUHU216HW,2013-04-06 15:55:00,
2013-04-06 12:00:00,73.1,58.8,30.07,North,0,0.0,0.0,61,0.00,,,0.00,WUHU216HW,2013-04-06 16:00:00,
2013-04-06 12:05:00,73.6,58.9,30.07,North,0,0.0,0.0,60,0.00,,,0.00,WUHU216HW,2013-04-06 16:05:00,
2013-04-06 12:10:00,73.4,58.1,30.07,North,0,0.0,0.0,59,0.00,,,0.00,WUHU216HW,2013-04-06 16:10:00,
2013-04-06 12:15:00,73.6,58.9,30.06,North,0,0.0,0.0,60,0.00,,,0.00,WUHU216HW,2013-04-06 16:15:00,
2013-04-06 12:20:00,74.0,59.2,30.06,North,0,0.0,0.0,60,0.00,,,0.00,WUHU216HW,2013-04-06 16:20:00,
2013-04-06 12:25:00,74.5,59.2,30.06,North,0,0.0,0.0,59,0.00,,,0.00,WUHU216HW,2013-04-06 16:25:00,
2013-04-06 12:30:00,74.9,59.6,30.06,North,0,0.0,0.0,59,0.00,,,0.00,WUHU216HW,2013-04-06 16:30:00,
2013-04-06 12:35:00,74.9,59.1,30.06,North,0,0.0,0.0,58,0.00,,,0.00,WUHU216HW,2013-04-06 16:35:00,
2013-04-06 12:40:00,75.4,59.7,30.06,North,0,0.0,0.0,58,0.00,,,0.00,WUHU216HW,2013-04-06 16:40:00,
2013-04-06 12:45:00,75.6,58.8,30.06,North,0,0.0,0.0,56,0.00,,,0.00,WUHU216HW,2013-04-06 16:45:00,
2013-04-06 12:50:00,75.4,57.6,30.05,North,0,0.0,0.0,54,0.00,,,0.00,WUHU216HW,2013-04-06 16:50:00,
2013-04-06 12:55:00,75.2,58.5,30.05,North,0,0.0,0.0,56,0.00,,,0.00,WUHU216HW,2013-04-06 16:55:00,
2013-04-06 13:00:00,75.2,58.5,30.05,North,0,0.0,0.0,56,0.00,,,0.00,WUHU216HW,2013-04-06 17:00:00,
2013-04-06 13:05:00,75.2,58.5,30.05,North,0,0.0,0.0,56,0.00,,,0.00,WUHU216HW,2013-04-06 17:05:00,
2013-04-06 13:10:00,74.9,58.2,30.05,North,0,0.0,0.0,56,0.00,,,0.00,WUHU216HW,2013-04-06 17:10:00,
2013-04-06 13:15:00,74.9,57.6,30.05,North,0,0.0,0.0,55,0.00,,,0.00,WUHU216HW,2013-04-06 17:15:00,
2013-04-06 13:20:00,75.2,58.5,30.04,North,0,0.0,0.0,56,0.00,,,0.00,WUHU216HW,2013-04-06 17:20:00,
2013-04-06 13:25:00,75.6,58.3,30.05,North,0,0.0,0.0,55,0.00,,,0.00,WUHU216HW,2013-04-06 17:25:00,
2013-04-06 13:30:00,76.0,58.6,30.05,North,0,0.0,0.0,55,0.00,,,0.00,WUHU216HW,2013-04-06 17:30:00,
2013-04-06 13:35:00,75.8,58.4,30.04,North,0,0.0,0.0,55,0.00,,,0.00,WUHU216HW,2013-04-06 17:35:00,
2013-04-06 13:40:00,75.8,58.0,30.05,North,0,0.0,0.0,54,0.00,,,0.00,WUHU216HW,2013-04-06 17:40:00,
2013-04-06 13:45:00,75.6,57.8,30.05,North,0,0.0,0.0,54,0.00,,,0.00,WUHU216HW,2013-04-06 17:45:00,
2013-04-06 13:50:00,75.8,57.4,30.05,North,0,0.0,0.0,53,0.00,,,0.00,WUHU216HW,2013-04-06 17:50:00,
2013-04-06 13:55:00,75.8,58.0,30.04,North,0,0.0,0.0,54,0.00,,,0.00,WUHU216HW,2013-04-06 17:55:00,
2013-04-06 14:00:00,75.6,58.3,30.04,North,0,0.0,0.0,55,0.00,,,0.00,WUHU216HW,2013-04-06 18:00:00,
2013-04-06 14:05:00,75.2,57.4,30.04,North,0,0.0,0.0,54,0.00,,,0.00,WUHU216HW,2013-04-06 18:05:00,
2013-04-06 14:10:00,75.2,57.4,30.04,North,0,0.0,0.0,54,0.00,,,0.00,WUHU216HW,2013-04-06 18:10:00,
2013-04-06 14:15:00,75.6,57.8,30.04,North,0,0.0,0.0,54,0.00,,,0.00,WUHU216HW,2013-04-06 18:15:00,
2013-04-06 14:20:00,75.6,57.2,30.04,North,0,0.0,0.0,53,0.00,,,0.00,WUHU216HW,2013-04-06 18:20:00,
2013-04-06 14:25:00,75.8,57.0,30.04,North,0,0.0,0.0,52,0.00,,,0.00,WUHU216HW,2013-04-06 18:25:00,
2013-04-06 14:30:00,75.8,57.4,30.04,North,0,0.0,0.0,53,0.00,,,0.00,WUHU216HW,2013-04-06 18:30:00,
2013-04-06 14:35:00,75.6,57.2,30.04,North,0,0.0,0.0,53,0.00,,,0.00,WUHU216HW,2013-04-06 18:35:00,
2013-04-06 14:40:00,75.6,57.8,30.04,North,0,0.0,0.0,54,0.00,,,0.00,WUHU216HW,2013-04-06 18:40:00,
2013-04-06 14:45:00,75.8,57.0,30.04,North,0,0.0,0.0,52,0.00,,,0.00,WUHU216HW,2013-04-06 18:45:00,
2013-04-06 14:55:00,75.6,57.8,30.04,North,0,0.0,0.0,54,0.00,,,0.00,WUHU216HW,2013-04-06 18:55:00,
2013-04-06 15:00:00,76.0,58.2,30.04,North,0,0.0,0.0,54,0.00,,,0.00,WUHU216HW,2013-04-06 19:00:00,
2013-04-06 15:05:00,76.0,57.6,30.04,North,0,0.0,0.0,53,0.00,,,0.00,WUHU216HW,2013-04-06 19:05:00,
2013-04-06 15:10:00,76.0,57.6,30.03,North,0,0.0,0.0,53,0.00,,,0.00,WUHU216HW,2013-04-06 19:10:00,
2013-04-06 15:15:00,76.0,57.1,30.04,North,0,0.0,0.0,52,0.00,,,0.00,WUHU216HW,2013-04-06 19:15:00,
2013-04-06 15:20:00,76.1,57.8,30.03,North,0,0.0,0.0,53,0.00,,,0.00,WUHU216HW,2013-04-06 19:20:00,
2013-04-06 15:25:00,76.1,57.8,30.03,North,0,0.0,0.0,53,0.00,,,0.00,WUHU216HW,2013-04-06 19:25:00,
2013-04-06 15:30:00,76.0,57.6,30.03,North,0,0.0,0.0,53,0.00,,,0.00,WUHU216HW,2013-04-06 19:30:00,
2013-04-06 15:35:00,75.6,56.3,30.04,North,0,0.0,0.0,51,0.00,,,0.00,WUHU216HW,2013-04-06 19:35:00,
2013-04-06 15:40:00,75.6,57.2,30.04,North,0,0.0,0.0,53,0.00,,,0.00,WUHU216HW,2013-04-06 19:40:00,
2013-04-06 15:45:00,75.8,57.0,30.04,North,0,0.0,0.0,52,0.00,,,0.00,WUHU216HW,2013-04-06 19:45:00,
2013-04-06 15:50:00,75.6,57.2,30.04,North,0,0.0,0.0,53,0.00,,,0.00,WUHU216HW,2013-04-06 19:50:00,
2013-04-06 15:55:00,75.8,57.4,30.03,North,0,0.0,0.0,53,0.00,,,0.00,WUHU216HW,2013-04-06 19:55:00,
2013-04-06 16:00:00,76.0,57.6,30.04,North,0,0.0,0.0,53,0.00,,,0.00,WUHU216HW,2013-04-06 20:00:00,
2013-04-06 16:05:00,76.0,57.6,30.04,North,0,0.0,0.0,53,0.00,,,0.00,WUHU216HW,2013-04-06 20:05:00,
2013-04-06 16:10:00,75.4,56.1,30.04,North,0,0.0,0.0,51,0.00,,,0.00,WUHU216HW,2013-04-06 20:10:00,
2013-04-06 16:15:00,75.2,57.4,30.03,North,0,0.0,0.0,54,0.00,,,0.00,WUHU216HW,2013-04-06 20:15:00,
2013-04-06 16:20:00,75.6,57.2,30.03,North,0,0.0,0.0,53,0.00,,,0.00,WUHU216HW,2013-04-06 20:20:00,
2013-04-06 16:25:00,76.0,57.6,30.03,North,0,0.0,0.0,53,0.00,,,0.00,WUHU216HW,2013-04-06 20:25:00,
2013-04-06 16:30:00,76.0,57.6,30.03,North,0,0.0,0.0,53,0.00,,,0.00,WUHU216HW,2013-04-06 20:30:00,
2013-04-06 16:35:00,75.8,57.4,30.03,North,0,0.0,0.0,53,0.00,,,0.00,WUHU216HW,2013-04-06 20:35:00,
2013-04-06 16:40:00,75.4,56.6,30.03,North,0,0.0,0.0,52,0.00,,,0.00,WUHU216HW,2013-04-06 20:40:00,
2013-04-06 16:45:00,75.2,57.0,30.03,North,0,0.0,0.0,53,0.00,,,0.00,WUHU216HW,2013-04-06 20:45:00,
2013-04-06 16:50:00,75.6,57.2,30.03,North,0,0.0,0.0,53,0.00,,,0.00,WUHU216HW,2013-04-06 20:50:00,
2013-04-06 16:55:00,75.6,57.2,30.03,North,0,0.0,0.0,53,0.00,,,0.00,WUHU216HW,2013-04-06 20:55:00,
2013-04-06 17:00:00,75.2,57.0,30.03,North,0,0.0,0.0,53,0.00,,,0.00,WUHU216HW,2013-04-06 21:00:00,
2013-04-06 17:05:00,74.9,57.1,30.03,North,0,0.0,0.0,54,0.00,,,0.00,WUHU216HW,2013-04-06 21:05:00,
2013-04-06 17:10:00,74.9,56.6,30.03,North,0,0.0,0.0,53,0.00,,,0.00,WUHU216HW,2013-04-06 21:10:00,
2013-04-06 17:15:00,74.9,57.1,30.03,North,0,0.0,0.0,54,0.00,,,0.00,WUHU216HW,2013-04-06 21:15:00,
2013-04-06 17:20:00,74.9,57.1,30.03,North,0,0.0,0.0,54,0.00,,,0.00,WUHU216HW,2013-04-06 21:20:00,
2013-04-06 17:25:00,74.9,57.1,30.03,North,0,0.0,0.0,54,0.00,,,0.00,WUHU216HW,2013-04-06 21:25:00,
2013-04-06 17:30:00,74.9,57.1,30.04,North,0,0.0,0.0,54,0.00,,,0.00,WUHU216HW,2013-04-06 21:30:00,
2013-04-06 17:35:00,74.5,56.7,30.04,North,0,0.0,0.0,54,0.00,,,0.00,WUHU216HW,2013-04-06 21:35:00,
2013-04-06 17:40:00,74.3,57.1,30.04,North,0,0.0,0.0,55,0.00,,,0.00,WUHU216HW,2013-04-06 21:40:00,
2013-04-06 17:45:00,74.2,56.9,30.04,North,0,0.0,0.0,55,0.00,,,0.00,WUHU216HW,2013-04-06 21:45:00,
2013-04-06 17:50:00,74.2,57.4,30.04,North,0,0.0,0.0,56,0.00,,,0.00,WUHU216HW,2013-04-06 21:50:00,
2013-04-06 17:55:00,73.8,57.1,30.05,North,0,0.0,0.0,56,0.00,,,0.00,WUHU216HW,2013-04-06 21:55:00,
2013-04-06 18:00:00,73.6,56.9,30.05,North,0,0.0,0.0,56,0.00,,,0.00,WUHU216HW,2013-04-06 22:00:00,
2013-04-06 18:05:00,73.4,56.7,30.05,North,0,0.0,0.0,56,0.00,,,0.00,WUHU216HW,2013-04-06 22:05:00,
2013-04-06 18:10:00,73.4,56.7,30.05,North,0,0.0,0.0,56,0.00,,,0.00,WUHU216HW,2013-04-06 22:10:00,
2013-04-06 18:15:00,73.4,56.7,30.05,North,0,0.0,0.0,56,0.00,,,0.00,WUHU216HW,2013-04-06 22:15:00,
2013-04-06 18:20:00,73.4,56.7,30.05,North,0,0.0,0.0,56,0.00,,,0.00,WUHU216HW,2013-04-06 22:20:00,
2013-04-06 18:25:00,73.3,57.0,30.05,North,0,0.0,0.0,57,0.00,,,0.00,WUHU216HW,2013-04-06 22:25:00,
2013-04-06 18:30:00,73.1,56.3,30.06,North,0,0.0,0.0,56,0.00,,,0.00,WUHU216HW,2013-04-06 22:30:00,
2013-04-06 18:35:00,73.1,56.3,30.06,North,0,0.0,0.0,56,0.00,,,0.00,WUHU216HW,2013-04-06 22:35:00,
2013-04-06 18:40:00,73.1,56.9,30.06,North,0,0.0,0.0,57,0.00,,,0.00,WUHU216HW,2013-04-06 22:40:00,
2013-04-06 18:45:00,73.1,56.9,30.06,North,0,0.0,0.0,57,0.00,,,0.00,WUHU216HW,2013-04-06 22:45:00,
2013-04-06 18:50:00,72.9,56.7,30.05,North,0,0.0,0.0,57,0.00,,,0.00,WUHU216HW,2013-04-06 22:50:00,
2013-04-06 18:55:00,72.7,57.1,30.05,North,0,0.0,0.0,58,0.00,,,0.00,WUHU216HW,2013-04-06 22:55:00,
2013-04-06 19:00:00,72.7,56.5,30.06,North,0,0.0,0.0,57,0.00,,,0.00,WUHU216HW,2013-04-06 23:00:00,
2013-04-06 19:05:00,72.5,56.9,30.06,North,0,0.0,0.0,58,0.00,,,0.00,WUHU216HW,2013-04-06 23:05:00,
2013-04-06 19:10:00,72.4,56.7,30.07,North,0,0.0,0.0,58,0.00,,,0.00,WUHU216HW,2013-04-06 23:10:00,
2013-04-06 19:15:00,72.4,56.7,30.07,North,0,0.0,0.0,58,0.00,,,0.00,WUHU216HW,2013-04-06 23:15:00,
2013-04-06 19:20:00,72.2,57.1,30.07,North,0,0.0,0.0,59,0.00,,,0.00,WUHU216HW,2013-04-06 23:20:00,
2013-04-06 19:25:00,72.0,56.9,30.07,North,0,0.0,0.0,59,0.00,,,0.00,WUHU216HW,2013-04-06 23:25:00,
2013-04-06 19:30:00,72.0,57.4,30.07,North,0,0.0,0.0,60,0.00,,,0.00,WUHU216HW,2013-04-06 23:30:00,
2013-04-06 19:35:00,71.8,57.3,30.07,North,0,0.0,0.0,60,0.00,,,0.00,WUHU216HW,2013-04-06 23:35:00,
2013-04-06 19:40:00,71.6,57.5,30.07,North,0,0.0,0.0,61,0.00,,,0.00,WUHU216HW,2013-04-06 23:40:00,
2013-04-06 19:45:00,71.5,57.3,30.07,North,0,0.0,0.0,61,0.00,,,0.00,WUHU216HW,2013-04-06 23:45:00,
2013-04-06 19:50:00,71.3,57.6,30.07,North,0,0.0,0.0,62,0.00,,,0.00,WUHU216HW,2013-04-06 23:50:00,
2013-04-06 19:55:00,71.1,57.4,30.07,North,0,0.0,0.0,62,0.00,,,0.00,WUHU216HW,2013-04-06 23:55:00,
2013-04-06 20:01:00,70.9,56.9,30.07,North,0,0.0,0.0,61,0.00,,,0.00,WUHU216HW,2013-04-07 00:01:00,
2013-04-06 20:06:00,70.7,57.1,30.08,North,0,0.0,0.0,62,0.00,,,0.00,WUHU216HW,2013-04-07 00:06:00,
2013-04-06 20:11:00,70.6,57.0,30.08,North,0,0.0,0.0,62,0.00,,,0.00,WUHU216HW,2013-04-07 00:11:00,
2013-04-06 20:16:00,70.6,57.0,30.08,North,0,0.0,0.0,62,0.00,,,0.00,WUHU216HW,2013-04-07 00:16:00,
2013-04-06 20:21:00,70.2,57.1,30.08,North,0,0.0,0.0,63,0.00,,,0.00,WUHU216HW,2013-04-07 00:21:00,
2013-04-06 20:26:00,70.2,57.4,30.08,North,0,0.0,0.0,64,0.00,,,0.00,WUHU216HW,2013-04-07 00:26:00,
2013-04-06 20:31:00,70.0,57.7,30.08,North,0,0.0,0.0,65,0.00,,,0.00,WUHU216HW,2013-04-07 00:31:00,
2013-04-06 20:36:00,69.8,57.5,30.08,North,0,0.0,0.0,65,0.00,,,0.00,WUHU216HW,2013-04-07 00:36:00,
2013-04-06 20:41:00,69.7,57.3,30.08,North,0,0.0,0.0,65,0.00,,,0.00,WUHU216HW,2013-04-07 00:41:00,
2013-04-06 20:46:00,69.5,57.2,30.08,North,0,0.0,0.0,65,0.00,,,0.00,WUHU216HW,2013-04-07 00:46:00,
2013-04-06 20:51:00,69.5,57.6,30.08,North,0,0.0,0.0,66,0.00,,,0.00,WUHU216HW,2013-04-07 00:51:00,
2013-04-06 20:56:00,69.3,57.4,30.08,North,0,0.0,0.0,66,0.00,,,0.00,WUHU216HW,2013-04-07 00:56:00,
2013-04-06 21:01:00,69.3,57.4,30.09,North,0,0.0,0.0,66,0.00,,,0.00,WUHU216HW,2013-04-07 01:01:00,
2013-04-06 21:06:00,68.9,57.1,30.09,North,0,0.0,0.0,66,0.00,,,0.00,WUHU216HW,2013-04-07 01:06:00,
2013-04-06 21:11:00,68.8,57.3,30.09,North,0,0.0,0.0,67,0.00,,,0.00,WUHU216HW,2013-04-07 01:11:00,
2013-04-06 21:16:00,68.8,57.3,30.10,North,0,0.0,0.0,67,0.00,,,0.00,WUHU216HW,2013-04-07 01:16:00,
2013-04-06 21:21:00,68.8,57.3,30.10,North,0,0.0,0.0,67,0.00,,,0.00,WUHU216HW,2013-04-07 01:21:00,
2013-04-06 21:26:00,68.6,57.6,30.10,North,0,0.0,0.0,68,0.00,,,0.00,WUHU216HW,2013-04-07 01:26:00,
2013-04-06 21:31:00,68.4,57.4,30.10,North,0,0.0,0.0,68,0.00,,,0.00,WUHU216HW,2013-04-07 01:31:00,
2013-04-06 21:36:00,68.4,57.4,30.11,North,0,0.0,0.0,68,0.00,,,0.00,WUHU216HW,2013-04-07 01:36:00,
2013-04-06 21:42:00,68.2,57.7,30.11,North,0,0.0,0.0,69,0.00,,,0.00,WUHU216HW,2013-04-07 01:42:00,
2013-04-06 21:47:00,68.0,57.5,30.11,North,0,0.0,0.0,69,0.00,,,0.00,WUHU216HW,2013-04-07 01:47:00,
2013-04-06 21:52:00,67.7,57.2,30.10,North,0,0.0,0.0,69,0.00,,,0.00,WUHU216HW,2013-04-07 01:52:00,
2013-04-06 21:57:00,67.7,57.6,30.10,North,0,0.0,0.0,70,0.00,,,0.00,WUHU216HW,2013-04-07 01:57:00,
2013-04-06 22:02:00,67.7,57.6,30.10,North,0,0.0,0.0,70,0.00,,,0.00,WUHU216HW,2013-04-07 02:02:00,
2013-04-06 22:07:00,67.5,57.4,30.10,North,0,0.0,0.0,70,0.00,,,0.00,WUHU216HW,2013-04-07 02:07:00,
2013-04-06 22:12:00,67.3,57.2,30.10,North,0,0.0,0.0,70,0.00,,,0.00,WUHU216HW,2013-04-07 02:12:00,
2013-04-06 22:17:00,67.3,57.2,30.10,North,0,0.0,0.0,70,0.00,,,0.00,WUHU216HW,2013-04-07 02:17:00,
2013-04-06 22:22:00,67.1,57.1,30.10,North,0,0.0,0.0,70,0.00,,,0.00,WUHU216HW,2013-04-07 02:22:00,
2013-04-06 22:27:00,67.0,56.9,30.11,North,0,0.0,0.0,70,0.00,,,0.00,WUHU216HW,2013-04-07 02:27:00,
2013-04-06 22:32:00,67.0,56.9,30.11,North,0,0.0,0.0,70,0.00,,,0.00,WUHU216HW,2013-04-07 02:32:00,
2013-04-06 22:37:00,66.8,57.1,30.11,North,0,0.0,0.0,71,0.00,,,0.00,WUHU216HW,2013-04-07 02:37:00,
2013-04-06 22:42:00,66.6,56.9,30.12,North,0,0.0,0.0,71,0.00,,,0.00,WUHU216HW,2013-04-07 02:42:00,
2013-04-06 22:47:00,66.6,57.2,30.12,North,0,0.0,0.0,72,0.00,,,0.00,WUHU216HW,2013-04-07 02:47:00,
2013-04-06 22:52:00,66.6,57.2,30.12,North,0,0.0,0.0,72,0.00,,,0.00,WUHU216HW,2013-04-07 02:52:00,
2013-04-06 22:57:00,66.4,57.1,30.12,North,0,0.0,0.0,72,0.00,,,0.00,WUHU216HW,2013-04-07 02:57:00,
2013-04-06 23:02:00,66.4,57.1,30.12,North,0,0.0,0.0,72,0.00,,,0.00,WUHU216HW,2013-04-07 03:02:00,
2013-04-06 23:07:00,66.2,56.9,30.13,North,0,0.0,0.0,72,0.00,,,0.00,WUHU216HW,2013-04-07 03:07:00,
2013-04-06 23:12:00,65.9,57.0,30.12,North,0,0.0,0.0,73,0.00,,,0.00,WUHU216HW,2013-04-07 03:12:00,
2013-04-06 23:17:00,65.7,56.8,30.12,North,0,0.0,0.0,73,0.00,,,0.00,WUHU216HW,2013-04-07 03:17:00,
2013-04-06 23:22:00,65.7,57.2,30.13,North,0,0.0,0.0,74,0.00,,,0.00,WUHU216HW,2013-04-07 03:22:00,
2013-04-06 23:27:00,65.7,57.2,30.13,North,0,0.0,0.0,74,0.00,,,0.00,WUHU216HW,2013-04-07 03:27:00,
2013-04-06 23:32:00,65.5,57.0,30.13,North,0,0.0,0.0,74,0.00,,,0.00,WUHU216HW,2013-04-07 03:32:00,
2013-04-06 23:37:00,65.5,57.0,30.12,North,0,0.0,0.0,74,0.00,,,0.00,WUHU216HW,2013-04-07 03:37:00,
2013-04-06 23:42:00,65.2,57.1,30.11,North,0,0.0,0.0,75,0.00,,,0.00,WUHU216HW,2013-04-07 03:42:00,
2013-04-06 23:47:00,65.0,56.9,30.11,North,0,0.0,0.0,75,0.00,,,0.00,WUHU216HW,2013-04-07 03:47:00,
2013-04-06 23:52:00,65.2,57.1,30.11,North,0,0.0,0.0,75,0.00,,,0.00,WUHU216HW,2013-04-07 03:52:00,
2013-04-06 23:57:00,65.2,57.4,30.11,North,0,0.0,0.0,76,0.00,,,0.00,WUHU216HW,2013-04-07 03:57:00,